Weather History for Konya, Turkey

Change the Weather History Date:

Saturday, December 8, 2012

  Actual Average Record
Temperature  
Mean Temperature 36 °F -  
Max Temperature 41 °F 43 °F 55 °F (1998)
Min Temperature 30 °F 27 °F 21 °F (2013)
Degree Days  
Heating Degree Days 30    
Moisture  
Dew Point 29 °F    
Average Humidity 80    
Maximum Humidity 93    
Minimum Humidity 47    
Precipitation  
Precipitation 0.00 in 0.06 in - ()
Sea Level Pressure  
Sea Level Pressure 30.03 in    
Wind  
Wind Speed 7 mph ()    
Max Wind Speed 15 mph    
Max Gust Speed -    
Visibility 6.7 miles    
Events      
Averages and records for this station are not official NWS values.
T = Trace of Precipitation, MM = Missing Value Source: Averaged Metar Reports

Daily Weather History Graph

Daily Weather History Graph

Search for Another Location

Airport:

Trip Planner

Search our weather history database for the weather conditions in past years. The results will help you decide how hot, cold, wet, or windy it might be!

Date:

Astronomy

Dec. 08, 2012 Rise Set
Actual Time 6:53 AM EET 4:30 PM EET
Civil Twilight 6:24 AM EET 4:59 PM EET
Nautical Twilight 5:51 AM EET 5:32 PM EET
Astronomical Twilight 5:19 AM EET 6:04 PM EET
Moon 1:00 AM EET (12/8) 12:44 PM EET (12/8)
Length of Visible Light 10h 35m
Length of Day
9h 36m
Waning Crescent, 31% of the Moon is Illuminated
Dec 8
Waning Crescent
Dec 13
New
Dec 20
First Quarter
Dec 28
Full
Jan 5
Last Quarter

Hourly Weather History & Observations

Time (EET) Temp. Windchill Dew Point Humidity Pressure Visibility Wind Dir Wind Speed Gust Speed Precip Events Conditions
12:50 AM 37.4 °F 30.3 °F 33.8 °F 87% 29.92 in 6.2 mi NNE 10.4 mph - N/A   Mostly Cloudy
1:50 AM 33.8 °F 25.8 °F 32.0 °F 93% 29.92 in 6.2 mi North 10.4 mph - N/A   Scattered Clouds
2:00 AM 34 °F - 32 °F 87%  in 12 mi North 10.4 mph - -   Partly Cloudy
2:50 AM 32.0 °F 22.5 °F 30.2 °F 93% 29.95 in 6.2 mi North 12.7 mph - N/A   Scattered Clouds
3:50 AM 32.0 °F 21.6 °F 30.2 °F 93% 29.95 in 6.2 mi North 15.0 mph - N/A   Scattered Clouds
4:50 AM 30.2 °F 20.8 °F 28.4 °F 93% 29.98 in 6.2 mi North 11.5 mph - N/A   Partly Cloudy
5:50 AM 30.2 °F 19.8 °F 28.4 °F 93% 30.01 in 6.2 mi NE 13.8 mph - N/A   Partly Cloudy
6:50 AM 30.2 °F 21.3 °F 28.4 °F 93% 30.01 in 6.2 mi North 10.4 mph - N/A   Scattered Clouds
7:50 AM 32.0 °F 24.2 °F 28.4 °F 87% 30.04 in 6.2 mi North 9.2 mph - N/A   Partly Cloudy
8:00 AM 32 °F - 28 °F 81%  in 12 mi North 9.2 mph - -   Scattered Clouds
8:50 AM 33.8 °F - 30.2 °F 87% 30.06 in 5.0 mi Variable 2.3 mph - N/A   Scattered Clouds
9:50 AM 35.6 °F 30.7 °F 30.2 °F 81% 30.06 in 3.7 mi SSW 5.8 mph - N/A   Mostly Cloudy
10:50 AM 37.4 °F 32.8 °F 30.2 °F 75% 30.06 in 6.2 mi South 5.8 mph - N/A   Mostly Cloudy
11:50 AM 37.4 °F 31.4 °F 28.4 °F 70% 30.06 in 6.2 mi South 8.1 mph - N/A   Scattered Clouds
12:50 PM 41.0 °F 35.8 °F 28.4 °F 61% 30.04 in 6.2 mi SSE 8.1 mph - N/A   Scattered Clouds
1:50 PM 41.0 °F 36.4 °F 28.4 °F 61% 30.04 in 6.2 mi South 6.9 mph - N/A   Partly Cloudy
2:00 PM 41 °F - 28 °F 47%  in 12 mi South 6.9 mph - -   Scattered Clouds
2:50 PM 41.0 °F 35.8 °F 28.4 °F 61% 30.04 in 6.2 mi South 8.1 mph - N/A   Partly Cloudy
3:50 PM 39.2 °F 33.0 °F 30.2 °F 70% 30.04 in 6.2 mi SE 9.2 mph - N/A   Partly Cloudy
4:50 PM 35.6 °F 31.7 °F 28.4 °F 75% 30.06 in 6.2 mi SE 4.6 mph - N/A   Partly Cloudy
5:50 PM 33.8 °F - 26.6 °F 75% 30.06 in 6.2 mi Variable 2.3 mph - N/A   Partly Cloudy
6:50 PM 32.0 °F - 26.6 °F 80% 30.06 in 6.2 mi Calm Calm - N/A   Partly Cloudy
7:50 PM 32.0 °F - 28.4 °F 87% 30.06 in 6.2 mi Calm Calm - N/A   Partly Cloudy
8:00 PM 32 °F - 28 °F 79%  in 12 mi Calm Calm - -   Scattered Clouds
8:50 PM 32.0 °F - 28.4 °F 87% 30.06 in 6.2 mi Calm Calm - N/A   Partly Cloudy
9:50 PM 33.8 °F - 28.4 °F 81% 30.06 in 3.7 mi Calm Calm - N/A   Partly Cloudy
10:50 PM 32.0 °F - 28.4 °F 87% 30.06 in 3.7 mi SSW 2.3 mph - N/A   Partly Cloudy
11:50 PM 35.6 °F 30.7 °F 30.2 °F 81% 30.06 in 6.2 mi SSW 5.8 mph - N/A   Partly Cloudy